Weather History for K8D3 - September, 2012

Change the Weather History Date:

Tuesday, September 11, 2012

  Actual Average Record
Temperature  
Mean Temperature 73 °F 62 °F  
Max Temperature 87 °F 74 °F 93 °F (1990)
Min Temperature 59 °F 49 °F 26 °F (1964)
Degree Days  
Heating Degree Days 0 5  
Month to date heating degree days 21 43  
Since 1 July heating degree days 57 86  
Cooling Degree Days 8 2  
Month to date cooling degree days 43 28  
Year to date cooling degree days 705 507  
Growing Degree Days 24 (Base 50)    
Moisture  
Dew Point 43 °F    
Average Humidity 34    
Maximum Humidity 45    
Minimum Humidity 23    
Precipitation  
Precipitation 0.00 in 0.09 in 0.83 in (1999)
Month to date precipitation 0.03 0.83  
Year to date precipitation 14.30 17.57  
Sea Level Pressure  
Sea Level Pressure 29.64 in    
Wind  
Wind Speed 11 mph (NW)    
Max Wind Speed 26 mph    
Max Gust Speed 35 mph    
T = Trace of Precipitation, MM = Missing Value Source: NWS Daily Summary

Daily Weather History Graph

Daily Weather History Graph

Search for Another Location

Airport or City:

Trip Planner

Search our weather history database for the weather conditions in past years. The results will help you decide how hot, cold, wet, or windy it might be!

Date:

Astronomy

Sep. 11, 2012 Rise Set
Actual Time 7:02 AM CDT 7:45 PM CDT
Civil Twilight 6:31 AM CDT 8:15 PM CDT
Nautical Twilight 5:56 AM CDT 8:51 PM CDT
Astronomical Twilight 5:18 AM CDT 9:28 PM CDT
Moon 2:09 AM CDT (9/11) 5:06 PM CDT (9/11)
Length of Visible Light 13h 43m
Length of Day
12h 43m
Waning Crescent, 21% of the Moon is Illuminated
Sep 11
Waning Crescent
Sep 15
New
Sep 22
First Quarter
Sep 29
Full
Oct 8
Last Quarter

Hourly Weather History & Observations

Time (CDT) Temp. Dew Point Humidity Pressure Visibility Wind Dir Wind Speed Gust Speed Precip Events Conditions
12:56 AM 79.0 °F 45.0 °F 30% 29.55 in - SW 15.0 mph 24.2 mph N/A   Unknown
1:56 AM 79.0 °F 45.0 °F 30% 29.52 in - WSW 21.9 mph 33.4 mph N/A   Unknown
2:56 AM 78.1 °F 44.1 °F 30% 29.52 in - WSW 19.6 mph 27.6 mph N/A   Unknown
3:56 AM 77.0 °F 44.1 °F 31% 29.51 in - SSW 8.1 mph 18.4 mph N/A   Unknown
4:56 AM 75.9 °F 43.0 °F 31% 29.53 in - South 5.8 mph - N/A   Unknown
5:56 AM 72.0 °F 45.0 °F 38% 29.53 in - SSE 8.1 mph - N/A   Unknown
6:56 AM 68.0 °F 46.0 °F 45% 29.54 in - Calm Calm - N/A   Unknown
7:56 AM 72.0 °F 46.9 °F 41% 29.54 in - South 9.2 mph - N/A   Unknown
8:56 AM 75.9 °F 45.0 °F 33% 29.54 in - South 5.8 mph - N/A   Unknown
9:56 AM 80.1 °F 46.0 °F 30% 29.54 in - SE 8.1 mph - N/A   Unknown
10:56 AM 82.0 °F 46.0 °F 28% 29.55 in - NW 4.6 mph - N/A   Unknown
11:56 AM 84.0 °F 48.0 °F 28% 29.56 in - WSW 6.9 mph - N/A   Unknown
12:56 PM 82.9 °F 48.0 °F 29% 29.57 in - WNW 13.8 mph - N/A   Unknown
1:11 PM 82.4 °F 50.0 °F 32% 29.65 in - NNW 15.0 mph - N/A   Unknown
1:56 PM 86.0 °F 50.0 °F 29% 29.59 in - NNW 8.1 mph - N/A   Unknown
2:56 PM 84.0 °F 48.9 °F 29% 29.62 in - NNW 19.6 mph - N/A   Unknown
3:56 PM 80.1 °F 45.0 °F 29% 29.64 in - North 18.4 mph - N/A   Unknown
4:56 PM 78.1 °F 39.9 °F 25% 29.68 in - North 18.4 mph - N/A   Unknown
5:56 PM 78.1 °F 37.0 °F 23% 29.70 in - North 16.1 mph - N/A   Unknown
6:56 PM 73.0 °F 34.0 °F 24% 29.75 in - North 17.3 mph - N/A   Unknown
7:56 PM 70.0 °F 34.0 °F 27% 29.78 in - North 10.4 mph - N/A   Unknown
8:56 PM 66.9 °F 35.1 °F 31% 29.82 in - North 9.2 mph - N/A   Unknown
9:56 PM 66.0 °F 35.1 °F 32% 29.85 in - North 12.7 mph - N/A   Unknown
10:56 PM 63.0 °F 33.1 °F 33% 29.88 in - North 12.7 mph - N/A   Unknown
11:56 PM 60.1 °F 34.0 °F 38% 29.94 in - WNW 4.6 mph - N/A   Unknown